Terminal Aerodrome Forecast
Issued by NWS Charleston, WV

Current Version | Previous Version | Graphics & Text | Print | Product List | Glossary On
Versions: 1 2 3 4 5 6 7 8 9 10 11 12 13 14 15 16 17 18 19 20 21 22 23 24
000
FTUS41 KRLX 211300 AAA
TAFEKN
TAF AMD
KEKN 211358Z 2114/2212 28007KT P6SM BKN030
     FM211800 28004KT P6SM SCT030
     FM212300 00000KT P6SM FEW100=

USA.gov is the U.S. government's official web portal to all federal, state and local government web resources and services.